FW2307 Weather Reports


Display with metric or nautical units.
time (UTC)temp
F
wind
direction
speed
MPH
gust
MPH
rain 1hr
in
rain 24hr
in
rain mn
in
humidity
%
barometer
mb
20220519053627 50 247 0.0 1.0 0.00 0.00 0.00 45 1021.0
20220519053330 50 247 0.0 0.0 0.00 0.00 0.00 46 1021.1
20220519052428 51 247 0.0 2.0 0.00 0.00 0.00 45 1021.3
20220519052130 51 247 0.0 0.0 0.00 0.00 0.00 46 1021.2
20220519051829 51 247 0.0 0.0 0.00 0.00 0.00 46 1021.4
20220519051527 51 247 0.0 1.0 0.00 0.00 0.00 46 1021.6
20220519050327 52 247 0.0 0.0 0.00 0.00 0.00 45 1021.9
20220519045130 53 247 0.0 2.0 0.00 0.00 0.00 46 1022.1
20220519043929 53 247 0.0 0.0 0.00 0.00 0.00 47 1022.3
20220519042729 52 247 0.0 1.0 0.00 0.00 0.00 49 1022.3
20220519042426 52 247 0.0 0.0 0.00 0.00 0.00 50 1022.4
20220519042129 52 247 0.0 0.0 0.00 0.00 0.00 50 1022.4
20220519041827 52 247 0.0 0.0 0.00 0.00 0.00 50 1022.3
20220519040643 53 247 0.0 0.0 0.00 0.00 0.00 49 1022.7
20220519040330 53 247 0.0 0.0 0.00 0.00 0.00 49 1022.7
20220519040032 53 247 0.0 0.0 0.00 0.00 0.00 49 1022.8
20220519035128 53 225 0.0 1.0 0.00 0.00 0.00 49 1022.8
20220519034829 53 225 1.0 2.0 0.00 0.00 0.00 49 1022.8
20220519034527 53 225 0.0 0.0 0.00 0.00 0.00 48 1023.0
20220519034228 53 225 0.0 0.0 0.00 0.00 0.00 47 1023.0
20220519033928 54 225 0.0 0.0 0.00 0.00 0.00 48 1022.9
20220519033627 54 225 0.0 0.0 0.00 0.00 0.00 48 1022.9
20220519033327 54 225 0.0 0.0 0.00 0.00 0.00 48 1022.9
20220519033028 54 225 0.0 0.0 0.00 0.00 0.00 48 1022.9
20220519032727 54 225 0.0 0.0 0.00 0.00 0.00 47 1023.0
20220519031528 55 225 0.0 0.0 0.00 0.00 0.00 46 1022.9
20220519031229 55 225 0.0 0.0 0.00 0.00 0.00 45 1023.0
20220519030927 55 225 0.0 0.0 0.00 0.00 0.00 46 1023.0
20220519025728 56 225 0.0 0.0 0.00 0.00 0.00 45 1023.0
20220519025430 56 225 0.0 0.0 0.00 0.00 0.00 44 1023.0
20220519025129 56 225 0.0 0.0 0.00 0.00 0.00 44 1023.0
20220519023927 58 225 0.0 0.0 0.00 0.00 0.00 41 1023.0
20220519023627 58 225 0.0 0.0 0.00 0.00 0.00 40 1023.0
20220519023344 58 225 0.0 0.0 0.00 0.00 0.00 40 1023.1
20220519023027 58 225 0.0 0.0 0.00 0.00 0.00 40 1023.1
20220519022729 59 225 0.0 0.0 0.00 0.00 0.00 40 1023.1
20220519022428 59 225 0.0 0.0 0.00 0.00 0.00 39 1023.2
20220519022128 59 223 0.0 1.0 0.00 0.00 0.00 39 1023.2
20220519020927 60 202 0.0 0.0 0.00 0.00 0.00 36 1023.4
20220519015727 62 202 0.0 0.0 0.00 0.00 0.00 35 1023.5
20220519014827 63 202 0.0 0.0 0.00 0.00 0.00 34 1023.4
20220519014528 63 202 0.0 0.0 0.00 0.00 0.00 34 1023.5
20220519014230 63 202 0.0 0.0 0.00 0.00 0.00 33 1023.5
20220519013028 65 180 0.0 0.0 0.00 0.00 0.00 30 1023.4
20220519012727 66 180 0.0 0.0 0.00 0.00 0.00 29 1023.3
20220519012445 66 180 0.0 0.0 0.00 0.00 0.00 29 1023.4
20220519012128 66 173 0.0 2.0 0.00 0.00 0.00 28 1023.4
20220519011829 66 157 0.0 1.0 0.00 0.00 0.00 28 1023.5
20220519011528 67 157 1.0 2.0 0.00 0.00 0.00 27 1023.5
20220519011230 67 157 1.0 3.0 0.00 0.00 0.00 28 1023.6
20220519010928 67 154 1.0 3.0 0.00 0.00 0.00 28 1023.7
20220519010629 67 140 2.0 5.0 0.00 0.00 0.00 28 1023.8
20220519010326 67 154 2.0 6.0 0.00 0.00 0.00 27 1023.8
20220519010029 67 157 0.0 1.0 0.00 0.00 0.00 28 1023.8
20220519004828 68 165 0.0 2.0 0.00 0.00 0.00 28 1023.8
20220519003645 68 135 1.0 3.0 0.00 0.00 0.00 27 1024.0
20220519003345 68 169 2.0 6.0 0.00 0.00 0.00 27 1024.0
20220519003027 68 106 2.0 4.0 0.00 0.00 0.00 27 1024.1
20220519002726 68 78 2.0 5.0 0.00 0.00 0.00 27 1024.1
20220519002428 68 103 2.0 4.0 0.00 0.00 0.00 27 1024.3
20220519001228 68 173 0.0 2.0 0.00 0.00 0.00 26 1024.4
20220519000327 69 112 0.0 2.0 0.00 0.00 0.00 26 1024.4
20220518235128 71 87 2.0 4.0 0.00 0.00 0.00 24 1024.8
20220518234827 71 69 2.0 10.0 0.00 0.00 0.00 24 1024.8
20220518234527 71 149 2.0 9.0 0.00 0.00 0.00 24 1024.8
20220518233328 71 339 0.0 2.0 0.00 0.00 0.00 24 1025.0
20220518233043 71 36 2.0 4.0 0.00 0.00 0.00 24 1025.1
20220518232743 71 3 1.0 5.0 0.00 0.00 0.00 25 1025.2
20220518231529 71 75 3.0 7.0 0.00 0.00 0.00 26 1025.1
20220518230327 71 65 3.0 6.0 0.00 0.00 0.00 27 1025.2
20220518230026 70 34 3.0 5.0 0.00 0.00 0.00 27 1025.1
20220518225727 70 200 2.0 6.0 0.00 0.00 0.00 27 1025.1
20220518225426 70 124 3.0 5.0 0.00 0.00 0.00 28 1025.1
20220518225128 69 147 3.0 6.0 0.00 0.00 0.00 28 1025.1
20220518224828 69 147 4.0 7.0 0.00 0.00 0.00 28 1025.3
20220518224527 69 154 2.0 5.0 0.00 0.00 0.00 28 1025.2
20220518224228 69 137 3.0 6.0 0.00 0.00 0.00 28 1025.2
20220518223927 69 92 3.0 6.0 0.00 0.00 0.00 28 1025.2
20220518223628 69 177 2.0 6.0 0.00 0.00 0.00 27 1025.4
20220518223326 69 113 1.0 6.0 0.00 0.00 0.00 27 1025.4
20220518223027 70 102 1.0 3.0 0.00 0.00 0.00 26 1025.5
20220518222126 70 149 1.0 5.0 0.00 0.00 0.00 26 1025.7
20220518221827 71 100 3.0 7.0 0.00 0.00 0.00 26 1025.7
20220518221528 71 55 3.0 8.0 0.00 0.00 0.00 25 1025.7
20220518221227 71 49 3.0 7.0 0.00 0.00 0.00 25 1025.9
20220518220927 71 251 1.0 7.0 0.00 0.00 0.00 26 1026.0
20220518220627 71 119 2.0 7.0 0.00 0.00 0.00 26 1026.1
20220518220329 71 97 4.0 7.0 0.00 0.00 0.00 26 1026.1
20220518220027 71 60 3.0 8.0 0.00 0.00 0.00 27 1026.0
20220518215126 69 112 2.0 10.0 0.00 0.00 0.00 27 1025.7
20220518213929 70 145 4.0 7.0 0.00 0.00 0.00 27 1025.9
20220518213627 70 89 4.0 8.0 0.00 0.00 0.00 26 1026.1
20220518213327 71 84 2.0 5.0 0.00 0.00 0.00 26 1026.2
20220518212128 73 257 1.0 4.0 0.00 0.00 0.00 25 1026.6
20220518210926 71 12 2.0 6.0 0.00 0.00 0.00 27 1026.6
20220518210628 72 113 1.0 4.0 0.00 0.00 0.00 26 1026.8
20220518205727 71 150 0.0 5.0 0.00 0.00 0.00 27 1026.8
20220518204527 71 41 4.0 9.0 0.00 0.00 0.00 27 1026.8
20220518203328 71 322 1.0 4.0 0.00 0.00 0.00 27 1026.8
20220518202130 71 340 2.0 7.0 0.00 0.00 0.00 27 1026.7
20220518200928 70 299 1.0 5.0 0.00 0.00 0.00 27 1026.8
20220518195726 70 217 2.0 6.0 0.00 0.00 0.00 29 1027.0
20220518195426 70 246 0.0 2.0 0.00 0.00 0.00 29 1026.9
20220518195127 70 305 0.0 3.0 0.00 0.00 0.00 29 1027.0
20220518193928 70 68 5.0 9.0 0.00 0.00 0.00 28 1027.1
20220518193628 70 123 3.0 7.0 0.00 0.00 0.00 28 1027.3
20220518192426 69 130 3.0 7.0 0.00 0.00 0.00 30 1027.1
20220518191228 67 115 4.0 7.0 0.00 0.00 0.00 31 1027.2
20220518190027 67 77 4.0 7.0 0.00 0.00 0.00 32 1027.5
20220518184827 68 23 4.0 10.0 0.00 0.00 0.00 29 1027.7
20220518184527 69 76 4.0 9.0 0.00 0.00 0.00 30 1027.7
20220518184228 69 79 3.0 6.0 0.00 0.00 0.00 30 1027.8
20220518183926 69 28 2.0 4.0 0.00 0.00 0.00 30 1027.7
20220518183627 69 330 3.0 8.0 0.00 0.00 0.00 30 1027.7
20220518183328 69 349 3.0 9.0 0.00 0.00 0.00 30 1027.9
20220518182127 69 107 3.0 10.0 0.00 0.00 0.00 29 1027.9
20220518181827 69 90 5.0 10.0 0.00 0.00 0.00 30 1028.1
20220518181526 70 76 5.0 11.0 0.00 0.00 0.00 29 1028.1
20220518180327 69 314 1.0 7.0 0.00 0.00 0.00 30 1028.2
20220518180026 69 224 0.0 7.0 0.00 0.00 0.00 30 1028.2
20220518175729 68 88 2.0 6.0 0.00 0.00 0.00 30 1028.3
20220518174825 69 129 2.0 7.0 0.00 0.00 0.00 31 1028.3
20220518174527 69 44 4.0 8.0 0.00 0.00 0.00 31 1028.3
20220518174228 69 29 4.0 8.0 0.00 0.00 0.00 32 1028.3
20220518173926 68 332 3.0 8.0 0.00 0.00 0.00 32 1028.3
20220518173628 67 114 0.0 4.0 0.00 0.00 0.00 33 1028.2
20220518172428 67 74 4.0 9.0 0.00 0.00 0.00 33 1028.2
20220518172127 67 61 3.0 8.0 0.00 0.00 0.00 33 1028.2
20220518171829 66 36 3.0 9.0 0.00 0.00 0.00 33 1028.2
20220518171528 66 53 3.0 6.0 0.00 0.00 0.00 34 1028.2
20220518171228 66 42 2.0 5.0 0.00 0.00 0.00 34 1028.2
20220518170926 66 78 3.0 6.0 0.00 0.00 0.00 33 1028.2
20220518170629 66 81 3.0 7.0 0.00 0.00 0.00 34 1028.2
20220518165426 65 79 4.0 7.0 0.00 0.00 0.00 34 1028.2
20220518165128 65 348 2.0 7.0 0.00 0.00 0.00 33 1028.2
20220518164828 65 73 3.0 7.0 0.00 0.00 0.00 34 1028.2
20220518164526 65 67 2.0 5.0 0.00 0.00 0.00 34 1028.2
20220518163625 66 77 2.0 4.0 0.00 0.00 0.00 34 1028.3
20220518163342 65 156 3.0 6.0 0.00 0.00 0.00 35 1028.2
20220518163027 64 160 3.0 7.0 0.00 0.00 0.00 36 1028.1
20220518161845 63 62 5.0 7.0 0.00 0.00 0.00 36 1028.1
20220518160643 64 42 4.0 7.0 0.00 0.00 0.00 34 1028.0
20220518160328 64 31 4.0 8.0 0.00 0.00 0.00 34 1028.1
20220518160028 64 6 4.0 7.0 0.00 0.00 0.00 35 1028.2
20220518155726 64 47 4.0 8.0 0.00 0.00 0.00 35 1028.2
20220518155427 64 60 2.0 8.0 0.00 0.00 0.00 36 1028.1
20220518154227 63 83 3.0 6.0 0.00 0.00 0.00 36 1028.1
20220518153928 63 119 2.0 5.0 0.00 0.00 0.00 36 1028.0
20220518153628 64 53 4.0 9.0 0.00 0.00 0.00 35 1028.0
20220518152426 64 260 0.0 2.0 0.00 0.00 0.00 32 1027.9
20220518152145 63 200 1.0 3.0 0.00 0.00 0.00 32 1027.9
20220518151827 63 218 3.0 8.0 0.00 0.00 0.00 33 1027.9
20220518151528 63 280 3.0 9.0 0.00 0.00 0.00 33 1027.9
20220518151227 63 273 4.0 11.0 0.00 0.00 0.00 33 1027.8
20220518150926 63 262 4.0 10.0 0.00 0.00 0.00 33 1027.8
20220518150627 63 205 2.0 10.0 0.00 0.00 0.00 33 1027.8
20220518150326 62 173 3.0 10.0 0.00 0.00 0.00 34 1027.7
20220518150027 62 258 3.0 9.0 0.00 0.00 0.00 35 1027.7
20220518144829 61 264 4.0 11.0 0.00 0.00 0.00 35 1027.7
20220518144526 61 249 3.0 5.0 0.00 0.00 0.00 36 1027.7
20220518144243 61 274 2.0 6.0 0.00 0.00 0.00 37 1027.7
20220518143927 61 343 1.0 5.0 0.00 0.00 0.00 36 1027.7
20220518143626 60 193 3.0 8.0 0.00 0.00 0.00 37 1027.7
20220518143326 60 151 2.0 6.0 0.00 0.00 0.00 37 1027.5
20220518142127 59 137 3.0 6.0 0.00 0.00 0.00 39 1027.6
20220518140928 58 145 2.0 4.0 0.00 0.00 0.00 44 1027.6
20220518140627 58 135 2.0 4.0 0.00 0.00 0.00 45 1027.5
20220518140328 57 108 2.0 4.0 0.00 0.00 0.00 47 1027.4
20220518135426 56 157 1.0 4.0 0.00 0.00 0.00 49 1027.3
20220518135128 55 180 0.0 0.0 0.00 0.00 0.00 49 1027.3
20220518134226 54 180 0.0 1.0 0.00 0.00 0.00 50 1027.1
20220518133042 52 157 1.0 4.0 0.00 0.00 0.00 55 1026.8
20220518132728 51 155 0.0 4.0 0.00 0.00 0.00 56 1026.8
20220518132427 51 135 0.0 0.0 0.00 0.00 0.00 57 1026.7
20220518132127 51 167 0.0 2.0 0.00 0.00 0.00 56 1026.6
20220518131826 50 224 0.0 0.0 0.00 0.00 0.00 56 1026.6
20220518131526 50 225 0.0 0.0 0.00 0.00 0.00 56 1026.7
20220518131228 50 225 0.0 0.0 0.00 0.00 0.00 55 1026.6
20220518130926 50 225 0.0 0.0 0.00 0.00 0.00 54 1026.6
20220518130626 50 225 0.0 0.0 0.00 0.00 0.00 54 1026.6
20220518125443 48 225 0.0 0.0 0.00 0.00 0.00 57 1026.3
20220518125126 49 225 0.0 0.0 0.00 0.00 0.00 56 1026.3
20220518124827 48 225 0.0 0.0 0.00 0.00 0.00 57 1026.2
20220518124527 48 225 0.0 0.0 0.00 0.00 0.00 57 1026.2
20220518124228 48 225 0.0 0.0 0.00 0.00 0.00 58 1026.2
20220518123928 48 239 0.0 0.0 0.00 0.00 0.00 58 1026.2
20220518123626 47 247 0.0 0.0 0.00 0.00 0.00 57 1026.0
20220518122427 47 247 0.0 0.0 0.00 0.00 0.00 57 1025.9
20220518122127 47 247 0.0 0.0 0.00 0.00 0.00 57 1025.8
20220518121825 47 247 0.0 0.0 0.00 0.00 0.00 58 1025.9
20220518121526 46 247 0.0 0.0 0.00 0.00 0.00 58 1025.9
20220518120328 45 247 0.0 0.0 0.00 0.00 0.00 59 1025.9
20220518115126 46 247 0.0 0.0 0.00 0.00 0.00 58 1026.0
20220518114826 46 247 0.0 0.0 0.00 0.00 0.00 58 1026.0
20220518114527 46 247 0.0 0.0 0.00 0.00 0.00 57 1026.0
20220518114227 46 247 0.0 0.0 0.00 0.00 0.00 58 1026.1
20220518113925 46 247 0.0 0.0 0.00 0.00 0.00 57 1026.1
20220518113646 46 247 0.0 0.0 0.00 0.00 0.00 57 1026.0
20220518113327 46 247 0.0 0.0 0.00 0.00 0.00 57 1026.0
20220518113026 46 247 0.0 0.0 0.00 0.00 0.00 56 1026.0
20220518112726 46 247 0.0 0.0 0.00 0.00 0.00 57 1026.0
20220518110325 47 247 0.0 0.0 0.00 0.00 0.00 55 1025.8
20220518110026 47 247 1.0 4.0 0.00 0.00 0.00 55 1025.8
20220518105725 47 247 1.0 4.0 0.00 0.00 0.00 54 1025.7
20220518104527 47 247 0.0 0.0 0.00 0.00 0.00 54 1025.7
20220518104228 47 247 0.0 0.0 0.00 0.00 0.00 54 1025.7
20220518103326 48 247 0.0 0.0 0.00 0.00 0.00 54 1025.8
20220518103027 48 247 0.0 0.0 0.00 0.00 0.00 53 1025.9
20220518102126 49 247 0.0 0.0 0.00 0.00 0.00 51 1025.9
20220518101846 50 247 0.0 0.0 0.00 0.00 0.00 50 1025.9
20220518101527 50 247 0.0 0.0 0.00 0.00 0.00 49 1025.9
20220518100327 51 247 1.0 2.0 0.00 0.00 0.00 51 1025.6
20220518100026 50 247 0.0 1.0 0.00 0.00 0.00 51 1025.7
20220518095728 50 247 0.0 1.0 0.00 0.00 0.00 52 1025.6
20220518095427 49 247 0.0 2.0 0.00 0.00 0.00 53 1025.6
20220518095127 49 247 1.0 2.0 0.00 0.00 0.00 53 1025.6
20220518094827 49 247 0.0 1.0 0.00 0.00 0.00 54 1025.6
20220518094526 49 247 0.0 1.0 0.00 0.00 0.00 54 1025.5
20220518094227 49 247 0.0 1.0 0.00 0.00 0.00 53 1025.6
20220518093928 49 247 0.0 0.0 0.00 0.00 0.00 52 1025.5
20220518093642 49 247 0.0 0.0 0.00 0.00 0.00 52 1025.7
20220518093341 50 263 0.0 1.0 0.00 0.00 0.00 52 1025.6
20220518093026 50 270 0.0 2.0 0.00 0.00 0.00 52 1025.6
20220518092727 50 270 0.0 1.0 0.00 0.00 0.00 51 1025.6
20220518091826 50 270 0.0 1.0 0.00 0.00 0.00 53 1025.5
20220518090925 48 270 1.0 4.0 0.00 0.00 0.00 55 1025.5
20220518090626 49 270 0.0 1.0 0.00 0.00 0.00 54 1025.5
20220518085726 49 270 0.0 1.0 0.00 0.00 0.00 55 1025.5
20220518085427 48 270 0.0 0.0 0.00 0.00 0.00 55 1025.4
20220518085143 48 270 0.0 0.0 0.00 0.00 0.00 56 1025.4
20220518084226 48 270 0.0 0.0 0.00 0.00 0.00 56 1025.4
20220518083929 48 270 0.0 2.0 0.00 0.00 0.00 57 1025.4
20220518083627 48 270 0.0 2.0 0.00 0.00 0.00 56 1025.4
20220518083325 48 270 0.0 1.0 0.00 0.00 0.00 56 1025.4
20220518082158 48 270 1.0 3.0 0.00 0.00 0.00 57 1025.5
20220518082013 48 258 0.0 1.0 0.00 0.00 0.00 58 1025.5
20220518081838 47 176 0.0 2.0 0.00 0.00 0.00 57 1025.6
20220518081226 47 270 0.0 2.0 0.00 0.00 0.00 58 1025.6
20220518080325 48 270 1.0 3.0 0.00 0.00 0.00 57 1025.7
20220518075127 49 308 0.0 2.0 0.00 0.00 0.00 56 1025.7
20220518074826 49 325 2.0 4.0 0.00 0.00 0.00 56 1025.7
20220518074527 48 112 0.0 1.0 0.00 0.00 0.00 57 1025.6
20220518074227 48 159 0.0 5.0 0.00 0.00 0.00 57 1025.5
20220518073325 48 247 0.0 0.0 0.00 0.00 0.00 56 1025.7
20220518073026 49 247 1.0 3.0 0.00 0.00 0.00 54 1025.9
20220518072726 50 247 2.0 4.0 0.00 0.00 0.00 52 1025.9
20220518072428 52 247 2.0 4.0 0.00 0.00 0.00 51 1026.0
20220518071525 52 215 0.0 4.0 0.00 0.00 0.00 52 1026.1
20220518070341 52 270 0.0 3.0 0.00 0.00 0.00 54 1026.0
20220518070026 52 253 1.0 5.0 0.00 0.00 0.00 53 1026.0
20220518065726 52 213 0.0 1.0 0.00 0.00 0.00 54 1026.0
20220518065426 52 157 0.0 2.0 0.00 0.00 0.00 54 1026.0
20220518065128 52 157 0.0 1.0 0.00 0.00 0.00 54 1025.8
20220518064827 52 203 0.0 3.0 0.00 0.00 0.00 55 1025.7
20220518063627 50 225 2.0 4.0 0.00 0.00 0.00 59 1025.6
20220518062428 49 225 0.0 0.0 0.00 0.00 0.00 60 1025.7
20220518061245 48 225 1.0 2.0 0.00 0.00 0.00 62 1025.6
20220518060926 48 225 1.0 2.0 0.00 0.00 0.00 63 1025.6
20220518060009 47 225 0.0 0.0 0.00 0.00 0.00 63 1025.8
20220518054811 47 225 0.0 0.0 0.00 0.00 0.00 61 1025.9
20220518054510 47 225 0.0 0.0 0.00 0.00 0.00 60 1025.9